星链-33705 (STARLINK-33705)

导读

STARLINK-33705是美国于2025年4月25日发射的星链卫星,隶属于SpaceX公司打造的星链星座系统。星链项目旨在构建全球卫星互联网星座,为全球各个地区,尤其是地面网络覆盖不足的偏远区域提供高速宽带互联网接入服务。该卫星入轨后,将与其他星链卫星协同工作,进一步扩大星链星座的覆盖范围与服务能力。

Basic Information
目录编号:
63651
目录名称:
STARLINK-33705
国际标识:
2025-083T
轨道中心:
EARTH
卫星名称:
星链-33705
卫星全名:
星链-33705 (STARLINK-33705)
卫星状态:
在轨 (已飞行498 天)
发射日期:
2025-04-25 UTC
国别 :
美国 (US)
星等 :
--
Orbit Information
数据来源 国际轨道数据 AOE轨道数据
星历时间 2026-09-05T05:15:25+0800
16小时前
查看轨道信息
2026-09-05T01:00:00+0800
20小时前
查看轨道信息
半长轴 6861.159km 6861.229km
偏心率 0.0001504 0.0002168
轨道倾角 43.002° 43.004°
近地点辐角 272.729° 272.171°
升交点赤经 73.105° 74.112°
平近点角 87.339° 191.311°
近地点 481.99km 481.604km
远地点 484.054km 484.58km
周期 94.266分钟 94.268分钟
每日圈数 15.275891 15.275659
Detailed Information
固有亮度:
5
最大亮度:
2.5
卫星平台:
Starlink V1.0
覆盖范围:
全球
运营商:
太空探索技术公司
运营商所在国:
美国
制造商(研发单位):
太空探索技术公司
制造商所在国:
美国
使用方式:
暂无
Satellite Introduction
Starlink 计划是 SpaceX 推出的全球卫星互联网项目,通过发射低轨道卫星,为全球尤其是偏远地区提供高速、低延迟的互联网服务。自 2019 年起,Starlink 已部署数千颗卫星,旨在缩小全球数字鸿沟,推动互联网普及。该项目还为军事、航空等行业提供通信支持,带来广泛经济效益。
2D Orbit Map
3D Orbit Map
Orbit Altitude Analysis Chart
Orbit Inclination Analysis Chart
Orbit Comprehensive Analysis Chart
View Comprehensive Chart
Conjunction Data List
Event ID Objects TCA Miss Dist (km) Collision Risk Probability Collision Risk Index (CRI) Action
CDM_260907-170405-619106-365121
HAWK-7A (56191)
2026-09-07T
17:04:08+0000
1.211 km
极远距离
1.099659E-5 中风险 0.56
CDM_260906-051806-365106-471221
2026-09-06T
05:18:37+0000
1.587 km
极远距离
4.962669E-6 低风险 0.49
CDM_260906-004204-282706-365121
OBJECT C (42827)
2026-09-06T
00:42:13+0000
2.476 km
极远距离
1.148829E-6 低风险 0.36